Location: Banska Bystrica
(48.7330°N, 19.1500°E)
Time: 02:14:39
(UTC+02:00)

Tiangong 2 - Pass Details

Date: 24 May 2019
Orbit: 376 x 389 km, 42.8° (Epoch: 20 June)

Event Time Altitude Azimuth Distance (km) Brightness Sun altitude
Rises 22:12:05 0° 258° (WSW) 2,234 5.3 -13.0°
Reaches altitude 10° 22:14:20 10° 245° (WSW) 1,382 4.0 -13.2°
Maximum altitude 22:16:58 25° 187° (S) 797 2.2 -13.4°
Enters shadow 22:17:18 25° 175° (S) 810 2.2 -13.5°
